Weather History for Keahole Point, HI

Change the Weather History Date:

Wednesday, May 30, 2012

  Actual Average Record
Temperature  
Mean Temperature 77 °F -  
Max Temperature 82 °F 81 °F 91 °F (1983)
Min Temperature 72 °F 71 °F 67 °F (1991)
Cooling Degree Days 12    
Growing Degree Days 27 (Base 50)    
Moisture  
Dew Point 63 °F    
Average Humidity 62    
Maximum Humidity 71    
Minimum Humidity 52    
Precipitation  
Precipitation 0.00 in - - ()
Sea Level Pressure  
Sea Level Pressure 30.06 in    
Wind  
Wind Speed 5 mph (SSE)    
Max Wind Speed 12 mph    
Max Gust Speed 17 mph    
Visibility 10 miles    
Events      
Averages and records for this station are not official NWS values.
T = Trace of Precipitation, MM = Missing Value Source: NWS Daily Summary

Daily Weather History Graph

Daily Weather History Graph

Search for Another Location

Airport:

Trip Planner

Search our weather history database for the weather conditions in past years. The results will help you decide how hot, cold, wet, or windy it might be!

Date:

Astronomy

May. 30, 2012 Rise Set
Actual Time 5:44 AM HST 6:59 PM HST
Civil Twilight 5:20 AM HST 7:23 PM HST
Nautical Twilight 4:51 AM HST 7:51 PM HST
Astronomical Twilight 4:22 AM HST 8:21 PM HST
Moon 2:22 PM HST (5/30) 1:38 AM HST (5/30)
Length of Visible Light 14h 02m
Length of Day
13h 14m
Waxing Gibbous, 72% of the Moon is Illuminated
May 30
Waxing Gibbous
Jun 4
Full
Jun 11
Last Quarter
Jun 19
New
Jun 26
First Quarter

Hourly Weather History & Observations

Time (HST) Temp. Heat Index Dew Point Humidity Pressure Visibility Wind Dir Wind Speed Gust Speed Precip Events Conditions
12:53 AM 73.9 °F - 61.0 °F 64% 30.07 in 10.0 mi East 4.6 mph - N/A   Clear
1:53 AM 73.0 °F - 61.0 °F 66% 30.05 in 10.0 mi Calm Calm - N/A   Clear
2:53 AM 73.0 °F - 62.1 °F 68% 30.04 in 10.0 mi ESE 3.5 mph - N/A   Scattered Clouds
3:53 AM 72.0 °F - 62.1 °F 71% 30.04 in 10.0 mi East 4.6 mph - N/A   Partly Cloudy
4:53 AM 72.0 °F - 61.0 °F 68% 30.05 in 10.0 mi ESE 5.8 mph - N/A   Clear
5:53 AM 72.0 °F - 62.1 °F 71% 30.05 in 10.0 mi East 3.5 mph - N/A   Mostly Cloudy
6:53 AM 73.9 °F - 61.0 °F 64% 30.08 in 10.0 mi North 4.6 mph - N/A   Overcast
7:53 AM 78.1 °F - 60.1 °F 54% 30.09 in 10.0 mi North 4.6 mph - N/A   Clear
8:53 AM 78.1 °F - 62.1 °F 58% 30.09 in 10.0 mi WSW 4.6 mph - N/A   Clear
9:53 AM 80.1 °F 81.7 °F 64.0 °F 58% 30.09 in 10.0 mi SSW 8.1 mph - N/A   Mostly Cloudy
10:53 AM 79.0 °F - 66.9 °F 66% 30.09 in 10.0 mi SW 9.2 mph - N/A   Mostly Cloudy
11:53 AM 81.0 °F 82.7 °F 64.9 °F 58% 30.07 in 10.0 mi SSW 10.4 mph - N/A   Scattered Clouds
12:53 PM 81.0 °F 82.7 °F 64.9 °F 58% 30.06 in 10.0 mi SSW 6.9 mph - N/A   Clear
1:10 PM 82.4 °F 84.6 °F 66.2 °F 58% 30.05 in 10.0 mi WSW 11.5 mph - N/A   Mostly Cloudy
1:53 PM 80.1 °F 82.3 °F 66.9 °F 64% 30.05 in 10.0 mi WSW 9.2 mph - N/A   Mostly Cloudy
2:53 PM 79.0 °F - 66.9 °F 66% 30.03 in 10.0 mi WSW 9.2 mph - N/A   Overcast
3:53 PM 79.0 °F - 66.0 °F 64% 30.03 in 10.0 mi SSW 9.2 mph - N/A   Overcast
4:53 PM 80.1 °F 82.1 °F 66.0 °F 62% 30.02 in 10.0 mi SSE 10.4 mph - N/A   Overcast
5:53 PM 80.1 °F 81.2 °F 62.1 °F 54% 30.03 in 10.0 mi WSW 4.6 mph - N/A   Overcast
6:53 PM 79.0 °F - 64.0 °F 60% 30.06 in 10.0 mi ESE 5.8 mph 17.3 mph N/A   Overcast
7:53 PM 77.0 °F - 57.9 °F 52% 30.06 in 10.0 mi North 3.5 mph - N/A   Partly Cloudy
8:53 PM 77.0 °F - 66.0 °F 69% 30.07 in 10.0 mi SSE 10.4 mph - N/A   Partly Cloudy
9:53 PM 75.9 °F - 60.1 °F 58% 30.09 in 10.0 mi NNE 5.8 mph - N/A   Scattered Clouds
10:16 PM 75.2 °F - 62.6 °F 65% 30.09 in 10.0 mi NNE 4.6 mph - N/A   Mostly Cloudy
10:53 PM 75.9 °F - 60.1 °F 58% 30.10 in 10.0 mi South 3.5 mph - N/A   Overcast
11:53 PM 75.9 °F - 64.0 °F 67% 30.08 in 10.0 mi SSE 8.1 mph - N/A   Mostly Cloudy